| time (UTC) | temp C | wind direction | speed KPH | gust KPH | rain 1hr cm | rain 24hr cm | rain mn cm | humidity % | barometer mb |
| 20260505140206 | 21 | 208 | 4.8 | 8.0 | 0.00 | 0.00 | 0.00 | 72 | 1019.9 |
| 20260505130130 | 18 | 177 | 4.8 | 4.8 | 0.00 | 0.00 | 0.00 | 84 | 1019.8 |
| 20260505124619 | 17 | 194 | 4.8 | 8.0 | 0.00 | 0.00 | 0.00 | 87 | 1020.0 |
| 20260505124115 | 17 | 177 | 3.2 | 3.2 | 0.00 | 0.00 | 0.00 | 90 | 1019.8 |
| 20260505123612 | 16 | 183 | 3.2 | 3.2 | 0.00 | 0.00 | 0.00 | 91 | 1019.7 |
| 20260505123108 | 16 | 176 | 4.8 | 8.0 | 0.00 | 0.00 | 0.00 | 93 | 1019.9 |
| 20260505122605 | 15 | 171 | 3.2 | 3.2 | 0.00 | 0.00 | 0.00 | 95 | 1019.6 |
| 20260505122102 | 15 | 169 | 3.2 | 3.2 | 0.00 | 0.00 | 0.00 | 96 | 1019.7 |
| 20260505121559 | 14 | 110 | 1.6 | 3.2 | 0.00 | 0.00 | 0.00 | 97 | 1019.6 |
| 20260505121056 | 13 | 155 | 8.0 | 9.7 | 0.00 | 0.00 | 0.00 | 98 | 1019.6 |
| 20260505120552 | 13 | 200 | 3.2 | 3.2 | 0.00 | 0.00 | 0.00 | 98 | 1019.6 |
| 20260505120048 | 13 | 204 | 0.0 | 0.0 | 0.00 | 0.00 | 0.00 | 98 | 1019.5 |
| 20260505115542 | 12 | 206 | 1.6 | 1.6 | 0.00 | 0.00 | 0.00 | 99 | 1019.6 |
| 20260505115040 | 12 | 203 | 0.0 | 1.6 | 0.00 | 0.00 | 0.00 | 99 | 1019.5 |
| 20260505114537 | 12 | 207 | 1.6 | 1.6 | 0.00 | 0.00 | 0.00 | 99 | 1019.5 |
| 20260505114033 | 11 | 199 | 1.6 | 1.6 | 0.00 | 0.00 | 0.00 | 99 | 1019.5 |
| 20260505113530 | 11 | 193 | 1.6 | 1.6 | 0.00 | 0.00 | 0.00 | 99 | 1019.6 |
| 20260505113026 | 11 | 205 | 1.6 | 1.6 | 0.00 | 0.00 | 0.00 | 98 | 1019.5 |
| 20260505112522 | 10 | 206 | 0.0 | 0.0 | 0.00 | 0.00 | 0.00 | 98 | 1019.3 |
| 20260505112021 | 10 | 206 | 0.0 | 0.0 | 0.00 | 0.00 | 0.00 | 98 | 1019.5 |
| 20260505111520 | 10 | 206 | 0.0 | 0.0 | 0.00 | 0.00 | 0.00 | 98 | 1019.2 |
| 20260505111017 | 10 | 206 | 0.0 | 0.0 | 0.00 | 0.00 | 0.00 | 98 | 1019.1 |
| 20260505110513 | 10 | 206 | 0.0 | 0.0 | 0.00 | 0.00 | 0.00 | 98 | 1019.3 |
| 20260505101945 | 9 | 206 | 0.0 | 0.0 | 0.00 | 0.00 | 0.00 | 96 | 1018.7 |
| 20260505101444 | 9 | 206 | 0.0 | 0.0 | 0.00 | 0.00 | 0.00 | 96 | 1018.7 |
| 20260505100940 | 9 | 206 | 0.0 | 0.0 | 0.00 | 0.00 | 0.00 | 96 | 1018.6 |
| 20260505100437 | 8 | 206 | 0.0 | 0.0 | 0.00 | 0.00 | 0.00 | 96 | 1018.6 |
| 20260505095933 | 8 | 206 | 0.0 | 0.0 | 0.00 | 0.00 | 0.00 | 96 | 1018.6 |
| 20260505095430 | 8 | 206 | 0.0 | 0.0 | 0.00 | 0.00 | 0.00 | 96 | 1018.6 |
| 20260505094926 | 9 | 206 | 0.0 | 0.0 | 0.00 | 0.00 | 0.00 | 96 | 1018.7 |
| 20260505094423 | 9 | 206 | 0.0 | 0.0 | 0.00 | 0.00 | 0.00 | 95 | 1018.6 |
| 20260505093919 | 9 | 206 | 0.0 | 0.0 | 0.00 | 0.00 | 0.00 | 95 | 1018.6 |
| 20260505093416 | 9 | 206 | 0.0 | 0.0 | 0.00 | 0.00 | 0.00 | 95 | 1018.8 |
| 20260505092914 | 9 | 206 | 0.0 | 0.0 | 0.00 | 0.00 | 0.00 | 95 | 1018.6 |
| 20260505092412 | 9 | 206 | 0.0 | 0.0 | 0.00 | 0.00 | 0.00 | 95 | 1018.4 |
| 20260505091909 | 10 | 206 | 0.0 | 0.0 | 0.00 | 0.00 | 0.00 | 95 | 1018.2 |
| 20260505091406 | 9 | 206 | 0.0 | 0.0 | 0.00 | 0.00 | 0.00 | 95 | 1018.6 |
| 20260505090904 | 10 | 206 | 0.0 | 0.0 | 0.00 | 0.00 | 0.00 | 95 | 1018.4 |
| 20260505090402 | 10 | 206 | 0.0 | 0.0 | 0.00 | 0.00 | 0.00 | 95 | 1018.4 |
| 20260505085859 | 10 | 206 | 0.0 | 0.0 | 0.00 | 0.00 | 0.00 | 95 | 1018.5 |
| 20260505085357 | 10 | 206 | 0.0 | 0.0 | 0.00 | 0.00 | 0.00 | 94 | 1018.2 |
| 20260505084855 | 10 | 206 | 0.0 | 0.0 | 0.00 | 0.00 | 0.00 | 94 | 1018.1 |
| 20260505084353 | 10 | 206 | 0.0 | 0.0 | 0.00 | 0.00 | 0.00 | 94 | 1018.1 |
| 20260505083850 | 10 | 206 | 0.0 | 0.0 | 0.00 | 0.00 | 0.00 | 94 | 1018.1 |
| 20260505083348 | 10 | 206 | 0.0 | 0.0 | 0.00 | 0.00 | 0.00 | 94 | 1018.2 |
| 20260505082844 | 10 | 206 | 0.0 | 0.0 | 0.00 | 0.00 | 0.00 | 94 | 1018.1 |
| 20260505082340 | 10 | 206 | 0.0 | 0.0 | 0.00 | 0.00 | 0.00 | 93 | 1018.1 |
| 20260505081836 | 10 | 206 | 0.0 | 0.0 | 0.00 | 0.00 | 0.00 | 93 | 1018.0 |
| 20260505081333 | 10 | 206 | 0.0 | 0.0 | 0.00 | 0.00 | 0.00 | 93 | 1018.0 |
| 20260505080830 | 10 | 206 | 0.0 | 0.0 | 0.00 | 0.00 | 0.00 | 92 | 1017.9 |
| 20260505080326 | 10 | 206 | 0.0 | 0.0 | 0.00 | 0.00 | 0.00 | 92 | 1017.8 |
| 20260505075821 | 11 | 206 | 0.0 | 0.0 | 0.00 | 0.00 | 0.00 | 92 | 1017.8 |
| 20260505075319 | 11 | 206 | 0.0 | 0.0 | 0.00 | 0.00 | 0.00 | 92 | 1017.9 |
| 20260505074816 | 11 | 206 | 0.0 | 0.0 | 0.00 | 0.00 | 0.00 | 92 | 1017.8 |
| 20260505074313 | 11 | 206 | 0.0 | 0.0 | 0.00 | 0.00 | 0.00 | 92 | 1017.8 |
| 20260505073810 | 11 | 206 | 0.0 | 0.0 | 0.00 | 0.00 | 0.00 | 91 | 1017.8 |
| 20260505073308 | 11 | 206 | 0.0 | 0.0 | 0.00 | 0.00 | 0.00 | 91 | 1018.0 |
| 20260505072805 | 11 | 206 | 0.0 | 0.0 | 0.00 | 0.00 | 0.00 | 91 | 1017.6 |
| 20260505072301 | 11 | 206 | 0.0 | 0.0 | 0.00 | 0.00 | 0.00 | 91 | 1017.9 |
| 20260505071757 | 12 | 206 | 0.0 | 0.0 | 0.00 | 0.00 | 0.00 | 91 | 1017.7 |
| 20260505071253 | 12 | 205 | 0.0 | 0.0 | 0.00 | 0.00 | 0.00 | 91 | 1017.9 |
| 20260505070751 | 12 | 205 | 1.6 | 1.6 | 0.00 | 0.00 | 0.00 | 90 | 1017.7 |
| 20260505070248 | 12 | 205 | 1.6 | 1.6 | 0.00 | 0.00 | 0.00 | 90 | 1018.0 |
| 20260505065743 | 12 | 206 | 0.0 | 0.0 | 0.00 | 0.00 | 0.00 | 89 | 1017.9 |
| 20260505065240 | 12 | 206 | 0.0 | 0.0 | 0.00 | 0.00 | 0.00 | 89 | 1018.0 |
| 20260505064737 | 12 | 206 | 0.0 | 0.0 | 0.00 | 0.00 | 0.00 | 89 | 1018.0 |
| 20260505064235 | 12 | 206 | 0.0 | 0.0 | 0.00 | 0.00 | 0.00 | 88 | 1018.0 |
| 20260505063732 | 12 | 206 | 0.0 | 0.0 | 0.00 | 0.00 | 0.00 | 88 | 1018.0 |
| 20260505063228 | 12 | 206 | 0.0 | 0.0 | 0.00 | 0.00 | 0.00 | 87 | 1017.8 |
| 20260505062725 | 12 | 206 | 0.0 | 0.0 | 0.00 | 0.00 | 0.00 | 87 | 1018.3 |
| 20260505062223 | 13 | 206 | 0.0 | 0.0 | 0.00 | 0.00 | 0.00 | 87 | 1018.2 |
| 20260505061719 | 13 | 206 | 0.0 | 0.0 | 0.00 | 0.00 | 0.00 | 86 | 1018.0 |
| 20260505061217 | 13 | 206 | 0.0 | 0.0 | 0.00 | 0.00 | 0.00 | 86 | 1018.1 |
| 20260505060714 | 13 | 206 | 1.6 | 1.6 | 0.00 | 0.00 | 0.00 | 85 | 1018.3 |
| 20260505060211 | 13 | 206 | 1.6 | 1.6 | 0.00 | 0.00 | 0.00 | 85 | 1018.4 |
| 20260505055707 | 13 | 206 | 0.0 | 0.0 | 0.00 | 0.00 | 0.00 | 84 | 1018.3 |
| 20260505055203 | 13 | 206 | 0.0 | 0.0 | 0.00 | 0.00 | 0.00 | 84 | 1018.2 |
| 20260505054700 | 13 | 206 | 0.0 | 0.0 | 0.00 | 0.00 | 0.00 | 83 | 1018.2 |
| 20260505054158 | 14 | 206 | 1.6 | 1.6 | 0.00 | 0.00 | 0.00 | 82 | 1018.5 |
| 20260505053656 | 14 | 206 | 0.0 | 1.6 | 0.00 | 0.00 | 0.00 | 82 | 1018.3 |
| 20260505053152 | 15 | 206 | 1.6 | 1.6 | 0.00 | 0.00 | 0.00 | 81 | 1018.4 |
| 20260505052649 | 15 | 203 | 1.6 | 3.2 | 0.00 | 0.00 | 0.00 | 81 | 1018.6 |
| 20260505052147 | 15 | 203 | 1.6 | 1.6 | 0.00 | 0.00 | 0.00 | 81 | 1018.5 |
| 20260505051643 | 15 | 206 | 1.6 | 1.6 | 0.00 | 0.00 | 0.00 | 80 | 1018.7 |
| 20260505051142 | 15 | 201 | 1.6 | 3.2 | 0.00 | 0.00 | 0.00 | 80 | 1018.6 |
| 20260505050639 | 15 | 207 | 1.6 | 3.2 | 0.00 | 0.00 | 0.00 | 80 | 1018.8 |
| 20260505050137 | 15 | 212 | 1.6 | 1.6 | 0.00 | 0.00 | 0.00 | 79 | 1018.7 |
| 20260505041607 | 16 | 204 | 1.6 | 1.6 | 0.00 | 0.00 | 0.00 | 77 | 1018.5 |
| 20260505041104 | 16 | 209 | 1.6 | 3.2 | 0.00 | 0.00 | 0.00 | 76 | 1018.9 |
| 20260505040601 | 16 | 198 | 3.2 | 3.2 | 0.00 | 0.00 | 0.00 | 76 | 1018.7 |
| 20260505040058 | 16 | 203 | 4.8 | 4.8 | 0.00 | 0.00 | 0.00 | 75 | 1018.7 |
| 20260505035555 | 16 | 194 | 3.2 | 3.2 | 0.00 | 0.00 | 0.00 | 75 | 1018.4 |
| 20260505035051 | 16 | 205 | 3.2 | 3.2 | 0.00 | 0.00 | 0.00 | 75 | 1018.6 |
| 20260505034548 | 16 | 204 | 1.6 | 3.2 | 0.00 | 0.00 | 0.00 | 74 | 1018.7 |
| 20260505034045 | 16 | 199 | 3.2 | 4.8 | 0.00 | 0.00 | 0.00 | 74 | 1018.8 |
| 20260505033542 | 17 | 201 | 3.2 | 3.2 | 0.00 | 0.00 | 0.00 | 73 | 1018.8 |
| 20260505033040 | 17 | 199 | 3.2 | 4.8 | 0.00 | 0.00 | 0.00 | 73 | 1018.7 |
| 20260505032538 | 17 | 188 | 4.8 | 4.8 | 0.00 | 0.00 | 0.00 | 72 | 1018.7 |
| 20260505032034 | 17 | 193 | 6.4 | 8.0 | 0.00 | 0.00 | 0.00 | 72 | 1018.6 |
| 20260505031531 | 17 | 197 | 6.4 | 8.0 | 0.00 | 0.00 | 0.00 | 72 | 1018.8 |
| 20260505031027 | 17 | 189 | 6.4 | 8.0 | 0.00 | 0.00 | 0.00 | 72 | 1018.6 |
| 20260505030524 | 17 | 192 | 4.8 | 4.8 | 0.00 | 0.00 | 0.00 | 71 | 1018.7 |
| 20260505030020 | 17 | 190 | 4.8 | 4.8 | 0.00 | 0.00 | 0.00 | 71 | 1018.7 |
| 20260505025516 | 17 | 193 | 4.8 | 8.0 | 0.00 | 0.00 | 0.00 | 71 | 1018.7 |
| 20260505025016 | 17 | 188 | 4.8 | 4.8 | 0.00 | 0.00 | 0.00 | 71 | 1018.7 |
| 20260505024512 | 17 | 206 | 4.8 | 4.8 | 0.00 | 0.00 | 0.00 | 70 | 1018.7 |
| 20260505024009 | 18 | 202 | 8.0 | 9.7 | 0.00 | 0.00 | 0.00 | 70 | 1018.5 |
| 20260505023506 | 18 | 185 | 4.8 | 4.8 | 0.00 | 0.00 | 0.00 | 70 | 1018.5 |
| 20260505023004 | 18 | 161 | 4.8 | 4.8 | 0.00 | 0.00 | 0.00 | 70 | 1018.8 |
| 20260505022501 | 18 | 204 | 1.6 | 3.2 | 0.00 | 0.00 | 0.00 | 70 | 1018.5 |
| 20260505021958 | 18 | 189 | 4.8 | 4.8 | 0.00 | 0.00 | 0.00 | 70 | 1018.6 |
| 20260505021454 | 18 | 211 | 4.8 | 4.8 | 0.00 | 0.00 | 0.00 | 69 | 1018.7 |
| 20260505020950 | 18 | 190 | 3.2 | 3.2 | 0.00 | 0.00 | 0.00 | 68 | 1018.7 |
| 20260505020445 | 18 | 187 | 4.8 | 4.8 | 0.00 | 0.00 | 0.00 | 68 | 1018.5 |
| 20260505015943 | 18 | 121 | 4.8 | 4.8 | 0.00 | 0.00 | 0.00 | 68 | 1018.5 |
| 20260505015440 | 19 | 156 | 8.0 | 9.7 | 0.00 | 0.00 | 0.00 | 67 | 1018.6 |
| 20260505014937 | 19 | 185 | 3.2 | 4.8 | 0.00 | 0.00 | 0.00 | 67 | 1018.4 |
| 20260505014434 | 19 | 213 | 3.2 | 3.2 | 0.00 | 0.00 | 0.00 | 66 | 1018.4 |
| 20260505013931 | 20 | 183 | 4.8 | 4.8 | 0.00 | 0.00 | 0.00 | 66 | 1018.2 |
| 20260505013428 | 20 | 157 | 8.0 | 11.3 | 0.00 | 0.00 | 0.00 | 66 | 1018.2 |
| 20260505012926 | 20 | 197 | 4.8 | 8.0 | 0.00 | 0.00 | 0.00 | 65 | 1018.4 |
| 20260505012424 | 20 | 185 | 3.2 | 3.2 | 0.00 | 0.00 | 0.00 | 65 | 1017.8 |
| 20260505011919 | 20 | 177 | 8.0 | 9.7 | 0.00 | 0.00 | 0.00 | 64 | 1018.1 |
| 20260505011416 | 20 | 189 | 4.8 | 8.0 | 0.00 | 0.00 | 0.00 | 64 | 1017.9 |
| 20260505010913 | 20 | 200 | 3.2 | 4.8 | 0.00 | 0.00 | 0.00 | 63 | 1017.8 |
| 20260505010409 | 20 | 197 | 8.0 | 9.7 | 0.00 | 0.00 | 0.00 | 62 | 1017.7 |
| 20260505005904 | 20 | 188 | 4.8 | 8.0 | 0.00 | 0.00 | 0.00 | 62 | 1017.6 |
| 20260505005402 | 20 | 167 | 4.8 | 8.0 | 0.00 | 0.00 | 0.00 | 62 | 1017.7 |
| 20260505004859 | 20 | 205 | 3.2 | 4.8 | 0.00 | 0.00 | 0.00 | 61 | 1017.5 |
| 20260505004355 | 21 | 184 | 11.3 | 12.9 | 0.00 | 0.00 | 0.00 | 60 | 1017.5 |
| 20260505003853 | 21 | 196 | 4.8 | 8.0 | 0.00 | 0.00 | 0.00 | 60 | 1017.5 |
| 20260505003350 | 21 | 233 | 4.8 | 4.8 | 0.00 | 0.00 | 0.00 | 59 | 1017.3 |
| 20260505002845 | 21 | 190 | 11.3 | 14.5 | 0.00 | 0.00 | 0.00 | 59 | 1017.3 |
| 20260505002342 | 21 | 185 | 8.0 | 9.7 | 0.00 | 0.00 | 0.00 | 58 | 1017.1 |
| 20260505001841 | 20 | 155 | 6.4 | 9.7 | 0.00 | 0.00 | 0.00 | 58 | 1017.3 |
| 20260505001338 | 21 | 210 | 1.6 | 1.6 | 0.00 | 0.00 | 0.00 | 57 | 1017.1 |
| 20260505000835 | 21 | 209 | 1.6 | 1.6 | 0.00 | 0.00 | 0.00 | 55 | 1017.0 |
| 20260505000333 | 21 | 213 | 0.0 | 0.0 | 0.00 | 0.00 | 0.00 | 52 | 1016.9 |
| 20260504235829 | 22 | 213 | 0.0 | 1.6 | 0.00 | 0.00 | 0.00 | 51 | 1017.1 |
| 20260504235326 | 22 | 212 | 1.6 | 1.6 | 0.00 | 0.00 | 0.00 | 49 | 1016.6 |
| 20260504234823 | 22 | 205 | 1.6 | 3.2 | 0.00 | 0.00 | 0.00 | 48 | 1016.8 |
| 20260504234321 | 22 | 208 | 0.0 | 1.6 | 0.00 | 0.00 | 0.00 | 47 | 1016.6 |
| 20260504233817 | 22 | 209 | 3.2 | 3.2 | 0.00 | 0.00 | 0.00 | 47 | 1016.7 |
| 20260504233313 | 22 | 209 | 1.6 | 1.6 | 0.00 | 0.00 | 0.00 | 46 | 1016.6 |
| 20260504232809 | 23 | 198 | 6.4 | 8.0 | 0.00 | 0.00 | 0.00 | 45 | 1016.7 |
| 20260504232307 | 23 | 204 | 6.4 | 8.0 | 0.00 | 0.00 | 0.00 | 45 | 1016.7 |
| 20260504231804 | 23 | 160 | 4.8 | 4.8 | 0.00 | 0.00 | 0.00 | 45 | 1016.7 |
| 20260504231300 | 23 | 185 | 4.8 | 4.8 | 0.00 | 0.00 | 0.00 | 43 | 1016.7 |
| 20260504230756 | 23 | 202 | 9.7 | 11.3 | 0.00 | 0.00 | 0.00 | 43 | 1016.7 |
| 20260504230254 | 23 | 201 | 4.8 | 8.0 | 0.00 | 0.00 | 0.00 | 43 | 1016.8 |
| 20260504225753 | 23 | 181 | 8.0 | 11.3 | 0.00 | 0.00 | 0.00 | 43 | 1016.7 |
| 20260504225249 | 23 | 207 | 8.0 | 11.3 | 0.00 | 0.00 | 0.00 | 44 | 1016.8 |
| 20260504224746 | 24 | 220 | 3.2 | 3.2 | 0.00 | 0.00 | 0.00 | 43 | 1016.8 |
| 20260504224243 | 24 | 202 | 8.0 | 11.3 | 0.00 | 0.00 | 0.00 | 42 | 1016.5 |
| 20260504223739 | 25 | 198 | 11.3 | 14.5 | 0.00 | 0.00 | 0.00 | 42 | 1016.8 |
| 20260504223235 | 25 | 222 | 4.8 | 8.0 | 0.00 | 0.00 | 0.00 | 42 | 1016.6 |
| 20260504222732 | 25 | 203 | 11.3 | 12.9 | 0.00 | 0.00 | 0.00 | 41 | 1016.6 |
| 20260504222229 | 25 | 200 | 6.4 | 11.3 | 0.00 | 0.00 | 0.00 | 41 | 1016.7 |
| 20260504221727 | 25 | 162 | 8.0 | 9.7 | 0.00 | 0.00 | 0.00 | 41 | 1016.6 |
| 20260504221224 | 25 | 157 | 8.0 | 11.3 | 0.00 | 0.00 | 0.00 | 42 | 1016.5 |
| 20260504220720 | 25 | 189 | 4.8 | 8.0 | 0.00 | 0.00 | 0.00 | 42 | 1016.6 |
| 20260504220218 | 25 | 178 | 8.0 | 12.9 | 0.00 | 0.00 | 0.00 | 42 | 1016.7 |
| 20260504215714 | 25 | 250 | 11.3 | 12.9 | 0.00 | 0.00 | 0.00 | 42 | 1016.7 |
| 20260504215211 | 25 | 138 | 8.0 | 9.7 | 0.00 | 0.00 | 0.00 | 42 | 1016.6 |
| 20260504214707 | 25 | 230 | 4.8 | 4.8 | 0.00 | 0.00 | 0.00 | 42 | 1016.5 |
| 20260504214204 | 26 | 205 | 8.0 | 11.3 | 0.00 | 0.00 | 0.00 | 40 | 1016.5 |
| 20260504213700 | 26 | 190 | 4.8 | 8.0 | 0.00 | 0.00 | 0.00 | 41 | 1016.5 |
| 20260504213157 | 26 | 202 | 9.7 | 14.5 | 0.00 | 0.00 | 0.00 | 40 | 1016.5 |
| 20260504212654 | 26 | 211 | 4.8 | 4.8 | 0.00 | 0.00 | 0.00 | 39 | 1016.4 |
| 20260504212150 | 26 | 202 | 9.7 | 12.9 | 0.00 | 0.00 | 0.00 | 38 | 1016.4 |
| 20260504211648 | 26 | 187 | 8.0 | 11.3 | 0.00 | 0.00 | 0.00 | 38 | 1016.4 |
| 20260504211144 | 26 | 205 | 6.4 | 8.0 | 0.00 | 0.00 | 0.00 | 38 | 1016.5 |
| 20260504210642 | 26 | 127 | 9.7 | 12.9 | 0.00 | 0.00 | 0.00 | 38 | 1016.5 |
| 20260504210138 | 26 | 221 | 3.2 | 3.2 | 0.00 | 0.00 | 0.00 | 38 | 1016.5 |
| 20260504205636 | 26 | 154 | 14.5 | 16.1 | 0.00 | 0.00 | 0.00 | 38 | 1016.7 |
| 20260504205133 | 25 | 200 | 4.8 | 4.8 | 0.00 | 0.00 | 0.00 | 40 | 1016.6 |
| 20260504204631 | 25 | 149 | 8.0 | 9.7 | 0.00 | 0.00 | 0.00 | 40 | 1016.6 |
| 20260504204130 | 26 | 177 | 8.0 | 11.3 | 0.00 | 0.00 | 0.00 | 39 | 1016.8 |
| 20260504203628 | 26 | 143 | 6.4 | 8.0 | 0.00 | 0.00 | 0.00 | 40 | 1016.8 |
| 20260504203125 | 26 | 211 | 6.4 | 8.0 | 0.00 | 0.00 | 0.00 | 40 | 1016.8 |
| 20260504202625 | 26 | 184 | 9.7 | 11.3 | 0.00 | 0.00 | 0.00 | 40 | 1016.7 |
| 20260504202123 | 26 | 147 | 6.4 | 9.7 | 0.00 | 0.00 | 0.00 | 39 | 1016.9 |
| 20260504201620 | 26 | 148 | 8.0 | 9.7 | 0.00 | 0.00 | 0.00 | 39 | 1017.1 |
| 20260504201118 | 26 | 222 | 4.8 | 8.0 | 0.00 | 0.00 | 0.00 | 41 | 1017.0 |
| 20260504200614 | 26 | 221 | 8.0 | 9.7 | 0.00 | 0.00 | 0.00 | 42 | 1017.2 |
| 20260504200110 | 25 | 163 | 6.4 | 8.0 | 0.00 | 0.00 | 0.00 | 41 | 1017.4 |
| 20260504195607 | 25 | 189 | 6.4 | 9.7 | 0.00 | 0.00 | 0.00 | 41 | 1017.2 |
| 20260504195103 | 26 | 152 | 8.0 | 11.3 | 0.00 | 0.00 | 0.00 | 41 | 1017.3 |
| 20260504194600 | 26 | 211 | 4.8 | 4.8 | 0.00 | 0.00 | 0.00 | 41 | 1017.3 |
| 20260504194055 | 26 | 195 | 8.0 | 9.7 | 0.00 | 0.00 | 0.00 | 41 | 1017.4 |
| 20260504193552 | 25 | 209 | 4.8 | 8.0 | 0.00 | 0.00 | 0.00 | 42 | 1017.3 |
| 20260504193051 | 25 | 163 | 14.5 | 14.5 | 0.00 | 0.00 | 0.00 | 42 | 1017.4 |
| 20260504192549 | 25 | 104 | 19.3 | 24.1 | 0.00 | 0.00 | 0.00 | 41 | 1017.6 |
| 20260504192046 | 25 | 110 | 11.3 | 14.5 | 0.00 | 0.00 | 0.00 | 41 | 1017.5 |
| 20260504191544 | 25 | 152 | 9.7 | 11.3 | 0.00 | 0.00 | 0.00 | 39 | 1017.5 |
| 20260504191040 | 25 | 216 | 6.4 | 9.7 | 0.00 | 0.00 | 0.00 | 40 | 1017.9 |
| 20260504190537 | 25 | 181 | 8.0 | 11.3 | 0.00 | 0.00 | 0.00 | 41 | 1017.8 |
| 20260504190032 | 25 | 185 | 6.4 | 8.0 | 0.00 | 0.00 | 0.00 | 40 | 1017.9 |
| 20260504185530 | 25 | 180 | 9.7 | 11.3 | 0.00 | 0.00 | 0.00 | 40 | 1017.8 |
| 20260504185026 | 25 | 158 | 11.3 | 11.3 | 0.00 | 0.00 | 0.00 | 39 | 1017.7 |
| 20260504184522 | 25 | 166 | 8.0 | 12.9 | 0.00 | 0.00 | 0.00 | 41 | 1018.2 |
| 20260504184017 | 26 | 210 | 4.8 | 4.8 | 0.00 | 0.00 | 0.00 | 41 | 1018.1 |
| 20260504183515 | 26 | 207 | 3.2 | 4.8 | 0.00 | 0.00 | 0.00 | 40 | 1018.2 |
| 20260504183013 | 25 | 252 | 3.2 | 3.2 | 0.00 | 0.00 | 0.00 | 41 | 1018.4 |
| 20260504182509 | 25 | 177 | 6.4 | 8.0 | 0.00 | 0.00 | 0.00 | 42 | 1018.2 |
| 20260504182007 | 25 | 210 | 9.7 | 14.5 | 0.00 | 0.00 | 0.00 | 41 | 1018.3 |
| 20260504181504 | 25 | 218 | 8.0 | 9.7 | 0.00 | 0.00 | 0.00 | 41 | 1018.3 |
| 20260504181002 | 25 | 125 | 6.4 | 8.0 | 0.00 | 0.00 | 0.00 | 41 | 1018.2 |
| 20260504180501 | 25 | 213 | 4.8 | 9.7 | 0.00 | 0.00 | 0.00 | 43 | 1018.4 |
| 20260504175959 | 25 | 180 | 12.9 | 14.5 | 0.00 | 0.00 | 0.00 | 42 | 1018.5 |
| 20260504175455 | 25 | 203 | 3.2 | 3.2 | 0.00 | 0.00 | 0.00 | 43 | 1018.5 |
| 20260504174953 | 25 | 158 | 4.8 | 8.0 | 0.00 | 0.00 | 0.00 | 42 | 1018.5 |
| 20260504174450 | 25 | 190 | 3.2 | 3.2 | 0.00 | 0.00 | 0.00 | 40 | 1018.4 |
| 20260504173948 | 25 | 170 | 6.4 | 9.7 | 0.00 | 0.00 | 0.00 | 43 | 1018.5 |
| 20260504173443 | 25 | 223 | 8.0 | 11.3 | 0.00 | 0.00 | 0.00 | 41 | 1018.8 |
| 20260504172942 | 25 | 188 | 4.8 | 8.0 | 0.00 | 0.00 | 0.00 | 41 | 1018.5 |
| 20260504172437 | 24 | 233 | 1.6 | 1.6 | 0.00 | 0.00 | 0.00 | 46 | 1018.5 |
| 20260504171934 | 24 | 179 | 6.4 | 9.7 | 0.00 | 0.00 | 0.00 | 44 | 1018.7 |
| 20260504171431 | 24 | 188 | 4.8 | 4.8 | 0.00 | 0.00 | 0.00 | 44 | 1018.7 |
| 20260504170928 | 25 | 175 | 9.7 | 12.9 | 0.00 | 0.00 | 0.00 | 42 | 1018.7 |
| 20260504170424 | 24 | 221 | 1.6 | 1.6 | 0.00 | 0.00 | 0.00 | 44 | 1018.8 |
| 20260504160343 | 23 | 185 | 9.7 | 11.3 | 0.00 | 0.00 | 0.00 | 48 | 1019.5 |
| 20260504150808 | 22 | 190 | 3.2 | 3.2 | 0.00 | 0.00 | 0.00 | 54 | 1019.8 |
| 20260504150305 | 22 | 167 | 6.4 | 8.0 | 0.00 | 0.00 | 0.00 | 53 | 1020.0 |